Time,TemperatureF,DewpointF,PressureIn,WindDirection,WindDirectionDegrees,WindSpeedMPH,WindSpeedGustMPH,Humidity,HourlyPrecipIn,Conditions,Clouds,dailyrainin,SoftwareType,DateUTC
2013-04-03 00:02:00,29.0,26.0,30.14,SSE,156,2.0,5.0,88,0.00,,,0.03,,2013-04-03 06:02:00,
2013-04-03 00:12:00,29.0,26.0,30.14,SSE,156,2.0,5.0,88,0.00,,,0.03,,2013-04-03 06:12:00,
2013-04-03 00:22:00,30.0,26.0,30.14,South,188,8.0,11.0,86,0.00,,,0.03,,2013-04-03 06:22:00,
2013-04-03 00:32:00,30.0,26.0,30.14,SSW,195,5.0,11.0,85,0.00,,,0.03,,2013-04-03 06:32:00,
2013-04-03 00:42:00,30.0,26.0,30.14,SSW,195,5.0,11.0,85,0.00,,,0.03,,2013-04-03 06:42:00,
2013-04-03 00:52:00,29.0,25.0,30.14,SW,216,4.0,7.0,86,0.00,,,0.02,,2013-04-03 06:52:00,
2013-04-03 01:02:00,29.0,25.0,30.13,West,271,3.0,7.0,85,0.00,,,0.02,,2013-04-03 07:02:00,
2013-04-03 01:12:00,29.0,25.0,30.13,West,271,3.0,7.0,85,0.00,,,0.02,,2013-04-03 07:12:00,
2013-04-03 01:23:00,29.0,25.0,30.14,North,360,1.0,2.0,84,0.00,,,0.02,,2013-04-03 07:23:00,
2013-04-03 01:32:00,28.0,24.0,30.13,SSE,147,1.0,8.0,84,0.00,,,0.02,,2013-04-03 07:32:00,
2013-04-03 01:42:00,28.0,24.0,30.13,SSE,147,1.0,8.0,84,0.00,,,0.02,,2013-04-03 07:42:00,
2013-04-03 01:53:00,28.0,24.0,30.13,South,186,4.0,7.0,85,0.00,,,0.02,,2013-04-03 07:53:00,
2013-04-03 02:02:00,28.0,23.0,30.13,South,186,2.0,3.0,82,0.00,,,0.02,,2013-04-03 08:02:00,
2013-04-03 02:12:00,28.0,23.0,30.13,South,186,2.0,3.0,82,0.00,,,0.02,,2013-04-03 08:12:00,
2013-04-03 02:22:00,27.0,23.0,30.13,South,186,0.0,3.0,84,0.00,,,0.02,,2013-04-03 08:22:00,
2013-04-03 02:32:00,27.0,23.0,30.13,SW,232,4.0,7.0,85,0.00,,,0.02,,2013-04-03 08:32:00,
2013-04-03 02:42:00,27.0,23.0,30.13,SW,232,4.0,7.0,85,0.00,,,0.02,,2013-04-03 08:42:00,
2013-04-03 02:52:00,28.0,24.0,30.14,SSW,213,6.0,9.0,84,0.00,,,0.02,,2013-04-03 08:52:00,
2013-04-03 03:02:00,28.0,24.0,30.14,SW,230,4.0,10.0,84,0.00,,,0.02,,2013-04-03 09:02:00,
2013-04-03 03:12:00,28.0,24.0,30.14,SW,230,4.0,10.0,84,0.00,,,0.02,,2013-04-03 09:12:00,
2013-04-03 03:22:00,28.0,24.0,30.14,SW,223,7.0,13.0,85,0.00,,,0.02,,2013-04-03 09:22:00,
2013-04-03 03:33:00,28.0,24.0,30.14,SSW,209,5.0,13.0,85,0.00,,,0.02,,2013-04-03 09:33:00,
2013-04-03 03:43:00,28.0,24.0,30.14,SSW,209,5.0,13.0,85,0.00,,,0.02,,2013-04-03 09:43:00,
2013-04-03 03:53:00,28.0,24.0,30.15,SSW,202,6.0,13.0,84,0.00,,,0.02,,2013-04-03 09:53:00,
2013-04-03 04:03:00,28.0,24.0,30.14,WSW,242,7.0,12.0,83,0.00,,,0.02,,2013-04-03 10:03:00,
2013-04-03 04:12:00,28.0,24.0,30.14,WSW,242,7.0,12.0,83,0.00,,,0.02,,2013-04-03 10:12:00,
2013-04-03 04:22:00,27.0,22.0,30.14,WSW,237,6.0,11.0,82,0.00,,,0.02,,2013-04-03 10:22:00,
2013-04-03 04:33:00,26.0,21.0,30.12,SSW,211,0.0,10.0,82,0.00,,,0.02,,2013-04-03 10:33:00,
2013-04-03 04:42:00,26.0,21.0,30.12,SSW,211,0.0,10.0,82,0.00,,,0.02,,2013-04-03 10:42:00,
2013-04-03 04:53:00,27.0,23.0,30.14,SW,232,8.0,13.0,84,0.00,,,0.02,,2013-04-03 10:53:00,
2013-04-03 05:02:00,27.0,23.0,30.15,SSW,213,9.0,15.0,84,0.00,,,0.02,,2013-04-03 11:02:00,
2013-04-03 05:12:00,27.0,23.0,30.15,SSW,213,9.0,15.0,84,0.00,,,0.02,,2013-04-03 11:12:00,
2013-04-03 05:22:00,27.0,22.0,30.14,WSW,238,8.0,14.0,82,0.00,,,0.02,,2013-04-03 11:22:00,
2013-04-03 05:32:00,26.0,21.0,30.14,SW,217,6.0,11.0,80,0.00,,,0.02,,2013-04-03 11:32:00,
2013-04-03 05:42:00,26.0,21.0,30.14,SW,217,6.0,11.0,80,0.00,,,0.02,,2013-04-03 11:42:00,
2013-04-03 05:53:00,26.0,20.0,30.15,South,186,7.0,15.0,79,0.00,,,0.02,,2013-04-03 11:53:00,
2013-04-03 06:02:00,25.0,19.0,30.16,South,191,6.0,13.0,79,0.00,,,0.02,,2013-04-03 12:02:00,
2013-04-03 06:12:00,25.0,19.0,30.16,South,191,6.0,13.0,79,0.00,,,0.02,,2013-04-03 12:12:00,
2013-04-03 06:22:00,25.0,19.0,30.16,SSW,206,6.0,11.0,78,0.00,,,0.02,,2013-04-03 12:22:00,
2013-04-03 06:32:00,26.0,20.0,30.16,South,175,6.0,16.0,77,0.00,,,0.02,,2013-04-03 12:32:00,
2013-04-03 06:42:00,26.0,20.0,30.16,South,175,6.0,16.0,77,0.00,,,0.02,,2013-04-03 12:42:00,
2013-04-03 06:52:00,25.0,20.0,30.15,SW,217,8.0,13.0,80,0.00,,,0.02,,2013-04-03 12:52:00,
2013-04-03 07:02:00,26.0,21.0,30.16,SW,214,6.0,12.0,80,0.00,,,0.02,,2013-04-03 13:02:00,
2013-04-03 07:12:00,26.0,21.0,30.16,SW,214,6.0,12.0,80,0.00,,,0.02,,2013-04-03 13:12:00,
2013-04-03 07:22:00,26.0,20.0,30.17,South,182,5.0,13.0,79,0.00,,,0.02,,2013-04-03 13:22:00,
2013-04-03 07:32:00,26.0,20.0,30.17,SSW,202,13.0,26.0,79,0.00,,,0.02,,2013-04-03 13:32:00,
2013-04-03 07:42:00,26.0,20.0,30.17,SSW,202,13.0,26.0,79,0.00,,,0.02,,2013-04-03 13:42:00,
2013-04-03 07:52:00,27.0,21.0,30.17,South,169,10.0,17.0,78,0.00,,,0.02,,2013-04-03 13:52:00,
2013-04-03 08:02:00,28.0,21.0,30.18,SSE,165,9.0,16.0,75,0.00,,,0.02,,2013-04-03 14:02:00,
2013-04-03 08:12:00,28.0,21.0,30.18,SSE,165,9.0,16.0,75,0.00,,,0.02,,2013-04-03 14:12:00,
2013-04-03 08:22:00,30.0,22.0,30.19,SSW,194,9.0,23.0,73,0.00,,,0.02,,2013-04-03 14:22:00,
2013-04-03 08:32:00,29.0,23.0,30.19,South,181,1.0,17.0,77,0.00,,,0.02,,2013-04-03 14:32:00,
2013-04-03 08:42:00,29.0,23.0,30.19,South,181,1.0,17.0,77,0.00,,,0.02,,2013-04-03 14:42:00,
2013-04-03 08:52:00,30.0,25.0,30.19,South,178,7.0,12.0,80,0.00,,,0.02,,2013-04-03 14:52:00,
2013-04-03 09:02:00,31.0,25.0,30.19,SSW,195,12.0,24.0,78,0.00,,,0.02,,2013-04-03 15:02:00,
2013-04-03 09:12:00,31.0,25.0,30.19,SSW,195,12.0,24.0,78,0.00,,,0.02,,2013-04-03 15:12:00,
2013-04-03 09:23:00,33.0,26.0,30.19,South,190,13.0,20.0,76,0.00,,,0.02,,2013-04-03 15:23:00,
2013-04-03 09:33:00,33.0,26.0,30.19,SSW,194,9.0,17.0,75,0.00,,,0.02,,2013-04-03 15:33:00,
2013-04-03 09:42:00,33.0,26.0,30.19,SSW,194,9.0,17.0,75,0.00,,,0.02,,2013-04-03 15:42:00,
2013-04-03 09:53:00,35.0,28.0,30.19,South,180,11.0,19.0,75,0.00,,,0.02,,2013-04-03 15:53:00,
2013-04-03 10:03:00,37.0,28.0,30.19,SSW,203,8.0,15.0,71,0.00,,,0.02,,2013-04-03 16:03:00,
2013-04-03 10:12:00,37.0,28.0,30.19,SSW,203,8.0,15.0,71,0.00,,,0.02,,2013-04-03 16:12:00,
2013-04-03 10:24:00,39.0,30.0,30.17,SSE,155,9.0,17.0,69,0.00,,,0.02,,2013-04-03 16:24:00,
2013-04-03 10:32:00,41.0,30.0,30.17,South,181,5.0,13.0,64,0.00,,,0.02,,2013-04-03 16:32:00,
2013-04-03 10:43:00,41.0,30.0,30.17,South,181,5.0,13.0,64,0.00,,,0.02,,2013-04-03 16:43:00,
2013-04-03 10:52:00,43.0,30.0,30.17,SSW,194,2.0,16.0,59,0.00,,,0.02,,2013-04-03 16:52:00,
2013-04-03 11:02:00,44.0,29.0,30.18,SW,225,4.0,12.0,56,0.00,,,0.02,,2013-04-03 17:02:00,
2013-04-03 11:22:00,45.0,27.0,30.19,SW,222,4.0,17.0,50,0.00,,,0.02,,2013-04-03 17:22:00,
2013-04-03 11:33:00,47.0,28.0,30.16,South,172,6.0,14.0,47,0.00,,,0.02,,2013-04-03 17:33:00,
2013-04-03 11:45:00,47.0,28.0,30.16,South,172,6.0,14.0,47,0.00,,,0.02,,2013-04-03 17:45:00,
2013-04-03 11:54:00,48.0,23.0,30.18,SE,130,1.0,15.0,37,0.00,,,0.02,,2013-04-03 17:54:00,
2013-04-03 12:02:00,49.0,24.0,30.18,SSE,155,5.0,15.0,37,0.00,,,0.02,,2013-04-03 18:02:00,
2013-04-03 12:12:00,49.0,24.0,30.18,SSE,155,5.0,15.0,37,0.00,,,0.02,,2013-04-03 18:12:00,
2013-04-03 12:22:00,49.0,26.0,30.17,SE,128,5.0,11.0,41,0.00,,,0.02,,2013-04-03 18:22:00,
2013-04-03 12:33:00,49.0,28.0,30.17,East,84,9.0,19.0,44,0.00,,,0.02,,2013-04-03 18:33:00,
2013-04-03 12:42:00,49.0,28.0,30.17,East,84,9.0,19.0,44,0.00,,,0.02,,2013-04-03 18:42:00,
2013-04-03 12:52:00,49.0,28.0,30.17,SE,133,7.0,13.0,44,0.00,,,0.02,,2013-04-03 18:52:00,
2013-04-03 13:02:00,50.0,26.0,30.17,NW,319,5.0,16.0,39,0.00,,,0.02,,2013-04-03 19:02:00,
2013-04-03 13:12:00,50.0,26.0,30.17,NW,319,5.0,16.0,39,0.00,,,0.02,,2013-04-03 19:12:00,
2013-04-03 13:22:00,51.0,23.0,30.17,ENE,63,3.0,10.0,33,0.00,,,0.02,,2013-04-03 19:22:00,
2013-04-03 13:32:00,48.0,18.0,30.16,NE,52,2.0,7.0,30,0.00,,,0.02,,2013-04-03 19:32:00,
2013-04-03 13:42:00,48.0,18.0,30.16,NE,52,2.0,7.0,30,0.00,,,0.02,,2013-04-03 19:42:00,
2013-04-03 13:52:00,49.0,18.0,30.17,ENE,78,3.0,6.0,29,0.00,,,0.02,,2013-04-03 19:52:00,
2013-04-03 14:02:00,51.0,23.0,30.17,ESE,113,6.0,17.0,33,0.00,,,0.02,,2013-04-03 20:02:00,
2013-04-03 14:12:00,51.0,23.0,30.17,ESE,113,6.0,17.0,33,0.00,,,0.02,,2013-04-03 20:12:00,
2013-04-03 14:22:00,51.0,21.0,30.16,SE,127,0.0,13.0,31,0.00,,,0.02,,2013-04-03 20:22:00,
2013-04-03 14:32:00,53.0,22.0,30.16,ENE,68,1.0,11.0,29,0.00,,,0.02,,2013-04-03 20:32:00,
2013-04-03 14:42:00,53.0,22.0,30.16,ENE,68,1.0,11.0,29,0.00,,,0.02,,2013-04-03 20:42:00,
2013-04-03 14:53:00,52.0,20.0,30.17,ESE,111,6.0,16.0,28,0.00,,,0.00,,2013-04-03 20:53:00,
2013-04-03 15:02:00,51.0,20.0,30.16,ENE,59,4.0,12.0,29,0.00,,,0.00,,2013-04-03 21:02:00,
2013-04-03 15:12:00,51.0,20.0,30.16,ENE,59,4.0,12.0,29,0.00,,,0.00,,2013-04-03 21:12:00,
2013-04-03 15:22:00,51.0,20.0,30.16,NE,34,1.0,15.0,29,0.00,,,0.00,,2013-04-03 21:22:00,
2013-04-03 15:32:00,54.0,21.0,30.16,ESE,103,1.0,7.0,27,0.00,,,0.00,,2013-04-03 21:32:00,
2013-04-03 15:42:00,54.0,21.0,30.16,ESE,103,1.0,7.0,27,0.00,,,0.00,,2013-04-03 21:42:00,
2013-04-03 15:52:00,53.0,21.0,30.16,SE,146,0.0,1.0,28,0.00,,,0.00,,2013-04-03 21:52:00,
2013-04-03 16:02:00,54.0,20.0,30.14,South,190,2.0,6.0,26,0.00,,,0.00,,2013-04-03 22:02:00,
2013-04-03 16:12:00,54.0,20.0,30.14,South,190,2.0,6.0,26,0.00,,,0.00,,2013-04-03 22:12:00,
2013-04-03 16:22:00,53.0,19.0,30.14,ESE,112,2.0,9.0,26,0.00,,,0.00,,2013-04-03 22:22:00,
2013-04-03 16:32:00,53.0,19.0,30.13,SSW,196,5.0,9.0,26,0.00,,,0.00,,2013-04-03 22:32:00,
2013-04-03 16:42:00,53.0,19.0,30.13,SSW,196,5.0,9.0,26,0.00,,,0.00,,2013-04-03 22:42:00,
2013-04-03 16:52:00,52.0,19.0,30.15,West,264,2.0,14.0,27,0.00,,,0.00,,2013-04-03 22:52:00,
2013-04-03 17:02:00,51.0,18.0,30.15,NNW,348,3.0,9.0,27,0.00,,,0.00,,2013-04-03 23:02:00,
2013-04-03 17:12:00,51.0,18.0,30.15,NNW,348,3.0,9.0,27,0.00,,,0.00,,2013-04-03 23:12:00,
2013-04-03 17:22:00,51.0,22.0,30.15,WSW,249,5.0,13.0,32,0.00,,,0.00,,2013-04-03 23:22:00,
2013-04-03 17:32:00,50.0,21.0,30.15,NW,306,5.0,16.0,31,0.00,,,0.00,,2013-04-03 23:32:00,
2013-04-03 17:42:00,50.0,21.0,30.15,NW,306,5.0,16.0,31,0.00,,,0.00,,2013-04-03 23:42:00,
2013-04-03 17:54:00,51.0,21.0,30.15,NNW,333,4.0,16.0,30,0.00,,,0.00,,2013-04-03 23:54:00,
2013-04-03 18:02:00,51.0,21.0,30.14,North,360,4.0,12.0,30,0.00,,,0.00,,2013-04-04 00:02:00,
2013-04-03 18:12:00,51.0,21.0,30.14,North,360,4.0,12.0,30,0.00,,,0.00,,2013-04-04 00:12:00,
2013-04-03 18:22:00,51.0,22.0,30.14,North,349,6.0,11.0,32,0.00,,,0.00,,2013-04-04 00:22:00,
2013-04-03 18:32:00,51.0,21.0,30.15,North,355,1.0,6.0,30,0.00,,,0.00,,2013-04-04 00:32:00,
2013-04-03 18:43:00,51.0,21.0,30.15,North,355,1.0,6.0,30,0.00,,,0.00,,2013-04-04 00:43:00,
2013-04-03 18:52:00,50.0,16.0,30.16,NW,306,6.0,12.0,26,0.00,,,0.00,,2013-04-04 00:52:00,
2013-04-03 19:02:00,50.0,16.0,30.16,West,280,3.0,7.0,25,0.00,,,0.00,,2013-04-04 01:02:00,
2013-04-03 19:12:00,50.0,16.0,30.16,West,280,3.0,7.0,25,0.00,,,0.00,,2013-04-04 01:12:00,
2013-04-03 19:22:00,50.0,16.0,30.16,West,280,3.0,7.0,25,0.00,,,0.00,,2013-04-04 01:22:00,
2013-04-03 19:32:00,50.0,16.0,30.16,West,280,3.0,7.0,25,0.00,,,0.00,,2013-04-04 01:32:00,
2013-04-03 19:43:00,50.0,16.0,30.16,West,280,3.0,7.0,25,0.00,,,0.00,,2013-04-04 01:43:00,
2013-04-03 19:52:00,44.0,26.0,30.21,NNW,327,17.0,25.0,49,0.00,,,0.00,,2013-04-04 01:52:00,
2013-04-03 20:02:00,42.0,28.0,30.21,WNW,298,15.0,28.0,57,0.00,,,0.00,,2013-04-04 02:02:00,
2013-04-03 20:12:00,42.0,28.0,30.21,WNW,298,15.0,28.0,57,0.00,,,0.00,,2013-04-04 02:12:00,
2013-04-03 20:22:00,41.0,27.0,30.21,NW,310,14.0,23.0,56,0.00,,,0.00,,2013-04-04 02:22:00,
2013-04-03 20:32:00,41.0,28.0,30.24,NNW,331,13.0,23.0,59,0.00,,,0.00,,2013-04-04 02:32:00,
2013-04-03 20:42:00,41.0,28.0,30.24,NNW,331,13.0,23.0,59,0.00,,,0.00,,2013-04-04 02:42:00,
2013-04-03 20:52:00,41.0,28.0,30.24,NNW,331,13.0,23.0,59,0.00,,,0.00,,2013-04-04 02:52:00,
2013-04-03 21:02:00,41.0,28.0,30.24,West,265,14.0,19.0,60,0.00,,,0.00,,2013-04-04 03:02:00,
2013-04-03 21:12:00,41.0,28.0,30.24,West,265,14.0,19.0,60,0.00,,,0.00,,2013-04-04 03:12:00,
2013-04-03 21:22:00,40.0,28.0,30.25,SW,228,4.0,15.0,62,0.00,,,0.00,,2013-04-04 03:22:00,
2013-04-03 21:33:00,39.0,28.0,30.25,NW,306,4.0,10.0,65,0.00,,,0.00,,2013-04-04 03:33:00,
2013-04-03 21:43:00,39.0,28.0,30.25,NW,306,4.0,10.0,65,0.00,,,0.00,,2013-04-04 03:43:00,
2013-04-03 21:53:00,39.0,29.0,30.24,WNW,292,3.0,13.0,67,0.00,,,0.00,,2013-04-04 03:53:00,
2013-04-03 22:02:00,40.0,28.0,30.24,West,277,11.0,18.0,62,0.00,,,0.00,,2013-04-04 04:02:00,
2013-04-03 22:12:00,40.0,28.0,30.24,West,277,11.0,18.0,62,0.00,,,0.00,,2013-04-04 04:12:00,
2013-04-03 22:23:00,40.0,28.0,30.25,West,281,5.0,12.0,63,0.00,,,0.00,,2013-04-04 04:23:00,
2013-04-03 22:33:00,40.0,27.0,30.25,West,281,6.0,13.0,60,0.00,,,0.00,,2013-04-04 04:33:00,
2013-04-03 22:43:00,40.0,27.0,30.25,West,281,6.0,13.0,60,0.00,,,0.00,,2013-04-04 04:43:00,
2013-04-03 22:53:00,40.0,28.0,30.25,NW,304,5.0,10.0,62,0.00,,,0.00,,2013-04-04 04:53:00,
2013-04-03 23:02:00,40.0,28.0,30.25,WSW,248,9.0,13.0,62,0.00,,,0.00,,2013-04-04 05:02:00,
2013-04-03 23:12:00,40.0,28.0,30.25,WSW,248,9.0,13.0,62,0.00,,,0.00,,2013-04-04 05:12:00,
2013-04-03 23:23:00,39.0,28.0,30.25,WSW,240,14.0,23.0,64,0.00,,,0.00,,2013-04-04 05:23:00,
2013-04-03 23:32:00,39.0,29.0,30.24,SSW,212,7.0,14.0,67,0.00,,,0.00,,2013-04-04 05:32:00,
2013-04-03 23:42:00,39.0,29.0,30.24,SSW,212,7.0,14.0,67,0.00,,,0.00,,2013-04-04 05:42:00,
2013-04-03 23:52:00,38.0,28.0,30.23,West,275,1.0,12.0,68,0.00,,,0.00,,2013-04-04 05:52:00,